[[{"header":{"parameterUnit":"m.s-1","parameterCategory":1,"la1":30.2991,"la2":30.254,"lo1":-89.0895,"lo2":-89.0444,"dy":0.0017,"dx":0.0017,"nx":28,"ny":28,"refTime":"2025-07-09T09:00:00:Z","depth":0,"parameterNumber":2,"parameterNumberName":"U-component_of_WINDS"},"data":[0,0,0,0,0,0,0,0,0,0,0,0,0,0,0,0,0,0,0,0,0,0,0,0,0,0,0,0,0,0,0,0,0,0,0,0,0,0,0,0,0,0,0,0,0,0,0,0,0,0,0,0,0,0,0,0,0,0,4.6252,4.6254,0,4.6496,4.6499,4.6502,4.6481,4.6477,4.6473,4.6469,4.6725,4.6735,4.6745,0,0,0,0,0,0,0,0,0,0,0,0,0,4.5769,4.5778,4.6251,4.6255,4.6258,4.6496,4.6499,4.6502,4.6481,4.6477,4.6472,4.6468,4.6722,4.6734,4.6746,0,0,0,0,0,0,0,0,0,0,0,0,0,4.5992,4.578,4.6251,4.6276,4.628,4.6495,4.6499,4.6503,4.6482,4.6476,4.6471,4.6466,4.6718,4.6733,4.6748,4.6956,0,0,4.6795,4.6802,0,0,0,0,0,0,0,0,4.598,4.601,4.6269,4.6274,4.628,4.6452,4.6422,4.6655,4.6484,4.6406,4.6469,4.6463,4.6639,4.6661,4.6719,4.6968,4.6978,4.6796,4.6806,4.6812,4.6817,0,0,0,0,0,0,0,4.5964,4.6,4.6348,4.6273,4.6279,4.6275,4.6301,4.6466,4.6551,4.6412,4.6411,4.644,4.6641,4.6704,4.6725,4.6982,4.6796,4.681,4.6819,4.6825,4.741,4.7416,0,0,0,0,0,0,4.5942,4.5987,4.6341,4.6356,4.6113,4.6288,4.6317,4.6403,4.6549,4.6566,4.6445,4.6438,4.668,4.6707,4.6734,4.6984,4.6812,4.6827,4.6836,4.7404,4.7412,4.7418,0,0,0,0,0,0,4.5932,4.5974,4.6331,4.6171,4.6216,4.6303,4.6399,4.641,4.6473,4.6574,4.6589,4.6493,4.6677,4.6712,4.6899,4.6993,4.6834,4.6848,4.7397,4.7406,4.7415,4.7488,0,0,0,0,0,0,4.5918,4.5971,4.605,4.6173,4.6225,4.6492,4.6405,4.6419,4.6499,4.6493,4.6623,4.664,4.6675,4.6876,4.6915,4.7011,4.686,4.7389,4.7401,4.7412,4.7478,4.7499,4.7517,0,0,0,0,0,4.5901,4.6063,4.6054,4.6097,4.6326,4.6497,4.6527,4.6563,4.6507,4.6588,4.6651,4.6636,4.6976,4.6896,4.6939,4.7041,4.7383,4.7397,4.7411,4.7469,4.7495,4.7516,0,0,0,0,0,0,4.5951,4.6079,4.6071,4.6277,4.6376,4.6493,4.6596,4.659,4.6709,4.6698,4.674,4.6769,4.6957,4.7018,4.6926,4.7248,4.7172,4.7196,4.7201,4.7227,4.7246,4.7227,4.6873,0,0,0,0,0,4.5986,4.6113,4.6219,4.6391,4.644,4.651,4.6586,4.6605,4.671,4.6752,4.683,4.6934,4.7064,4.7149,4.7274,4.7486,4.7513,4.7578,4.7597,4.7613,4.7632,4.7746,4.7775,4.7465,4.7465,4.7464,0,0,4.606,4.6145,4.6224,4.6403,4.6482,4.6613,4.6545,4.6688,4.6786,4.6775,4.6955,4.7016,4.7134,4.7334,4.7426,4.739,4.7724,4.7631,4.7643,4.7654,4.7764,4.7793,4.7819,4.7474,4.7473,4.7471,0,0,4.626,4.6339,4.6488,4.6568,4.6687,4.6732,4.6768,4.6886,4.6924,4.7106,4.7099,4.7216,4.7441,4.7524,4.7596,4.7825,4.7813,4.7865,4.7967,4.8077,4.8102,4.8123,4.8203,4.8231,4.7884,4.7884,4.7884,0,4.6337,4.6534,4.6567,4.671,4.6788,4.6781,4.6932,4.7009,4.7164,4.7218,4.7176,4.7454,4.7534,4.7751,4.7807,4.7866,4.7908,4.785,4.8095,4.8117,4.8138,4.8215,4.8245,4.7889,4.7889,4.7888,4.7888,0,4.6621,4.6757,4.6864,4.7011,4.7101,4.7248,4.7303,4.7391,4.7402,4.7451,4.7634,4.7729,4.7872,4.7925,4.7939,4.8145,4.8118,4.8086,4.801,4.8172,4.8245,4.8274,4.7897,4.7895,4.7893,4.7892,0,0,4.6862,4.7022,4.7061,4.7125,4.7255,4.7362,4.7507,4.7645,4.7718,4.7825,4.7948,4.8136,4.8105,4.8186,4.8209,4.8306,4.8478,4.8261,4.8264,4.8296,4.8708,4.873,4.8764,4.8471,4.8477,4.8482,4.8697,0,4.7074,4.733,4.7363,4.759,4.7715,4.7709,4.7836,4.7929,4.7978,4.8092,4.8147,4.8279,4.8229,4.8278,4.8374,4.8436,4.8561,4.8422,4.8585,4.8591,4.8554,4.8802,4.8827,4.9026,4.8726,4.8731,4.8734,0,4.7356,4.7467,4.7706,4.7815,4.7869,4.7982,4.8109,4.8218,4.8323,4.8352,4.8441,4.845,4.8601,4.8519,4.8726,4.8631,4.87,4.874,4.8749,4.8765,4.8671,4.8823,4.9091,4.912,4.8779,4.8776,4.8773,0,4.7505,4.7714,4.7883,4.794,4.8072,4.8151,4.821,4.8309,4.8389,4.85,4.8552,4.8681,4.8751,4.885,4.8894,4.8831,4.9098,4.902,4.9126,4.9125,4.9182,4.9177,4.9463,4.9229,4.9229,4.9228,4.9227,0,4.7738,4.7884,4.7951,4.8055,4.8218,4.8254,4.8415,4.8471,4.8559,4.8674,4.8678,4.8786,4.8837,4.8953,4.8988,4.9153,4.9186,4.9213,4.922,4.9212,4.9208,4.9257,4.9244,4.9236,4.9234,4.9233,4.9231,0,4.7931,4.7983,4.8166,4.8275,4.8305,4.842,4.8514,4.8614,4.8661,4.8806,4.8843,4.8917,4.9053,4.9106,4.9274,4.9297,4.9487,4.9485,4.9451,4.9452,4.9554,4.9543,4.9879,4.9924,4.9662,4.9665,4.9667,0,4.8076,4.8187,4.8306,4.8382,4.8443,4.8566,4.8646,4.8685,4.8769,4.8895,4.898,4.9115,4.9225,4.9443,4.9513,4.964,4.964,4.9749,4.9659,4.9646,4.9639,4.9631,4.9641,4.9765,4.9768,4.977,4.9772,0,4.8326,4.8345,4.8459,4.8581,4.8676,4.8775,4.8871,4.8934,4.8988,4.9081,4.9219,4.9304,4.9472,4.9606,4.9737,4.9798,4.9794,4.9799,4.983,4.9822,4.9797,4.9809,4.9494,4.9791,4.9789,4.9788,4.9787,4.9786,4.8498,4.8596,4.8693,4.882,4.8895,4.8985,4.9083,4.9141,4.9256,4.9394,4.9411,4.9558,4.9659,4.9833,4.99,5.0016,4.9987,5.0032,5.0044,5.0054,5.0059,4.9779,5.004,5.004,5.0039,5.0039,5.0038,0,4.8747,4.8808,4.8924,4.9056,4.9155,4.914,4.9245,4.9329,4.9458,4.9551,4.9658,4.9815,4.9944,5.0022,5.0152,5.0229,5.023,5.0262,5.0256,5.027,5.0079,5.0038,5.0258,5.0258,5.0258,5.0258,5.0258,5.0258,4.8887,4.905,4.908,4.928,4.9342,4.9484,4.9545,4.9627,4.97,4.9874,4.998,5.003,5.0117,5.0252,5.0369,5.0389,5.0436,5.0469,5.0486,5.0306,5.0284,5.0262,5.0224,5.0479,5.048,5.0667,5.0669,5.067]},{"header":{"parameterUnit":"m.s-1","parameterCategory":1,"la1":30.2991,"la2":30.254,"lo1":-89.0895,"lo2":-89.0444,"dy":0.0017,"dx":0.0017,"nx":28,"ny":28,"refTime":"2025-07-09T09:00:00:Z","depth":0,"parameterNumber":3,"parameterNumberName":"V-component_of_WINDS"},"data":[0,0,0,0,0,0,0,0,0,0,0,0,0,0,0,0,0,0,0,0,0,0,0,0,0,0,0,0,0,0,0,0,0,0,0,0,0,0,0,0,0,0,0,0,0,0,0,0,0,0,0,0,0,0,0,0,0,0,2.1385,2.1385,0,2.1415,2.1415,2.1415,2.1368,2.1366,2.1365,2.1363,2.1393,2.1395,2.1398,0,0,0,0,0,0,0,0,0,0,0,0,0,2.1284,2.1286,2.1385,2.1385,2.1385,2.1415,2.1415,2.1416,2.1368,2.1366,2.1364,2.1362,2.1392,2.1395,2.1398,0,0,0,0,0,0,0,0,0,0,0,0,0,2.1322,2.1287,2.1385,2.1365,2.1364,2.1415,2.1415,2.1416,2.1369,2.1366,2.1364,2.1361,2.1392,2.1395,2.1398,2.1469,0,0,2.1409,2.1411,0,0,0,0,0,0,0,0,2.132,2.1326,2.1368,2.1367,2.1365,2.1385,2.1391,2.1434,2.1369,2.1367,2.1363,2.136,2.1392,2.1396,2.1407,2.1471,2.1472,2.1409,2.1412,2.1413,2.1414,0,0,0,0,0,0,0,2.1318,2.1324,2.1396,2.1368,2.1367,2.1354,2.1357,2.1399,2.1393,2.1367,2.1363,2.1368,2.1391,2.1404,2.1407,2.1472,2.1409,2.1412,2.1415,2.1416,2.1594,2.1596,0,0,0,0,0,0,2.1317,2.1323,2.1396,2.1397,2.1336,2.1358,2.1361,2.1381,2.1392,2.1392,2.137,2.1365,2.1399,2.1403,2.1408,2.149,2.1413,2.1416,2.1418,2.1591,2.1594,2.1597,0,0,0,0,0,0,2.1315,2.1324,2.1394,2.1359,2.1367,2.1363,2.1385,2.1383,2.1395,2.1395,2.1393,2.1383,2.1397,2.1403,2.1454,2.1491,2.1418,2.1421,2.1588,2.1592,2.1596,2.1656,0,0,0,0,0,0,2.1313,2.1324,2.1352,2.136,2.1369,2.1441,2.1388,2.1385,2.1401,2.1396,2.1407,2.1407,2.1395,2.1449,2.1457,2.1494,2.1424,2.1584,2.159,2.1594,2.1651,2.1662,2.1671,0,0,0,0,0,2.1309,2.1368,2.1353,2.1362,2.1404,2.1443,2.1448,2.1434,2.1405,2.1432,2.1431,2.1406,2.1485,2.1455,2.1464,2.1502,2.1582,2.1588,2.1594,2.1647,2.166,2.1671,0,0,0,0,0,0,2.1364,2.1369,2.1353,2.1416,2.1429,2.1435,2.1469,2.1449,2.1471,2.1465,2.1447,2.145,2.1504,2.1508,2.1474,2.157,2.1529,2.1537,2.1566,2.1578,2.1588,2.1586,2.1427,0,0,0,0,0,2.1384,2.1416,2.1418,2.1473,2.1481,2.1474,2.149,2.1478,2.1492,2.1497,2.15,2.1514,2.1541,2.156,2.1585,2.1651,2.1652,2.1682,2.1692,2.17,2.1707,2.1741,2.1754,2.1616,2.1616,2.1616,0,0,2.1424,2.1431,2.1452,2.1484,2.1493,2.1526,2.1479,2.1516,2.154,2.1503,2.1551,2.1553,2.1567,2.1625,2.1651,2.163,2.1745,2.1708,2.1714,2.1717,2.1748,2.1761,2.1773,2.162,2.162,2.1619,0,0,2.1515,2.1523,2.1569,2.1579,2.1593,2.1588,2.1599,2.1607,2.1607,2.1655,2.1627,2.1655,2.1704,2.1714,2.1725,2.1817,2.1795,2.1826,2.1879,2.1912,2.1922,2.1932,2.1963,2.1975,2.1833,2.1833,2.1834,0,2.1563,2.1612,2.1596,2.1634,2.1648,2.1616,2.1662,2.1672,2.1694,2.1704,2.168,2.1739,2.1746,2.1806,2.1828,2.1839,2.185,2.1825,2.1922,2.1931,2.194,2.197,2.1982,2.1837,2.1837,2.1836,2.1836,0,2.167,2.1704,2.174,2.1761,2.1779,2.1821,2.1811,2.1831,2.1817,2.1814,2.1862,2.1869,2.1894,2.1907,2.1894,2.1964,2.1951,2.1925,2.1883,2.1957,2.1985,2.1996,2.1842,2.1841,2.184,2.1839,0,0,2.1797,2.1807,2.1821,2.1829,2.1841,2.1867,2.1907,2.1932,2.1949,2.1964,2.1997,2.2037,2.2013,2.2026,2.2014,2.2043,2.2113,2.2013,2.2013,2.2031,2.2189,2.2208,2.2222,2.2098,2.2101,2.2102,2.2188,0,2.1886,2.1955,2.1941,2.2008,2.2038,2.2007,2.2041,2.2052,2.205,2.2074,2.2071,2.21,2.2066,2.2074,2.2101,2.2099,2.2145,2.2093,2.2127,2.2129,2.2125,2.2237,2.2257,2.2338,2.2199,2.2201,2.2202,0,2.2,2.2019,2.2089,2.2095,2.2107,2.2138,2.2158,2.2183,2.2194,2.219,2.2204,2.2185,2.2223,2.2181,2.2233,2.2198,2.2211,2.2212,2.2214,2.2217,2.217,2.2241,2.2363,2.2375,2.2219,2.2218,2.2216,0,2.2084,2.2127,2.2174,2.2183,2.2191,2.2213,2.2217,2.2226,2.2241,2.2259,2.2268,2.229,2.2302,2.2319,2.2307,2.2277,2.236,2.2317,2.2357,2.2357,2.2376,2.2375,2.2501,2.2386,2.2385,2.2385,2.2385,0,2.2185,2.2229,2.2212,2.2241,2.2289,2.2271,2.2318,2.2319,2.2326,2.2354,2.2328,2.2355,2.2337,2.2362,2.2352,2.2396,2.2402,2.2399,2.2396,2.2401,2.2401,2.2409,2.2403,2.2388,2.2388,2.2387,2.2387,0,2.2287,2.2278,2.2327,2.233,2.2331,2.2366,2.2368,2.2395,2.239,2.2425,2.2432,2.2424,2.2452,2.2441,2.2471,2.2464,2.2519,2.2509,2.2516,2.2513,2.2553,2.2549,2.2688,2.2705,2.258,2.2581,2.2582,0,2.2351,2.2384,2.239,2.2407,2.2413,2.244,2.2455,2.2438,2.2455,2.2469,2.2493,2.2518,2.2538,2.2583,2.258,2.2602,2.2591,2.2638,2.2594,2.2598,2.2591,2.2589,2.2591,2.2647,2.2649,2.265,2.2651,0,2.2467,2.246,2.2483,2.2503,2.2522,2.2537,2.2551,2.2565,2.2549,2.2569,2.2597,2.2612,2.2641,2.2666,2.2685,2.2688,2.2667,2.2665,2.2675,2.268,2.2682,2.2681,2.2539,2.2661,2.266,2.266,2.2659,2.2659,2.2551,2.2578,2.2586,2.2612,2.262,2.2632,2.2657,2.2654,2.2677,2.2699,2.2688,2.272,2.2728,2.2751,2.2758,2.2782,2.2763,2.2779,2.2782,2.2786,2.2791,2.2679,2.2785,2.2785,2.2785,2.2784,2.2784,0,2.2664,2.2667,2.2691,2.271,2.2729,2.2707,2.272,2.2738,2.2766,2.2775,2.2794,2.2825,2.2849,2.2847,2.2868,2.2888,2.2878,2.2894,2.2892,2.2893,2.2807,2.2795,2.2901,2.2901,2.2901,2.2901,2.2901,2.2901,2.2725,2.2769,2.2763,2.281,2.2813,2.2843,2.2853,2.2864,2.2871,2.2906,2.2926,2.2924,2.2928,2.295,2.297,2.2969,2.2977,2.2997,2.2992,2.2911,2.2899,2.2888,2.2877,2.2999,2.2999,2.3076,2.3076,2.3077]}]]